TimeCDT,TemperatureF,Dew PointF,Humidity,Sea Level PressureIn,VisibilityMPH,Wind Direction,Wind SpeedMPH,Gust SpeedMPH,PrecipitationIn,Events,Conditions,WindDirDegrees,DateUTC
12:53 AM,81.0,66.0,60,30.09,10.0,South,6.9,-,N/A,,Clear,180,2013-07-09 05:53:00
1:53 AM,79.0,66.9,66,30.09,10.0,South,5.8,-,N/A,,Clear,170,2013-07-09 06:53:00
2:53 AM,78.1,68.0,71,30.09,10.0,South,8.1,-,N/A,,Clear,190,2013-07-09 07:53:00
3:53 AM,78.1,70.0,76,30.09,10.0,South,8.1,-,N/A,,Clear,190,2013-07-09 08:53:00
4:53 AM,77.0,70.0,79,30.09,10.0,South,8.1,-,N/A,,Clear,190,2013-07-09 09:53:00
5:53 AM,75.9,71.1,85,30.11,10.0,South,8.1,-,N/A,,Clear,180,2013-07-09 10:53:00
6:53 AM,75.9,72.0,87,30.13,9.0,South,6.9,-,N/A,,Clear,180,2013-07-09 11:53:00
7:20 AM,77.0,71.6,83,30.15,9.0,South,8.1,-,N/A,,Mostly Cloudy,180,2013-07-09 12:20:00
7:44 AM,78.8,73.4,83,30.15,9.0,South,10.4,-,N/A,,Scattered Clouds,180,2013-07-09 12:44:00
7:53 AM,79.0,73.0,82,30.13,9.0,SSW,11.5,-,N/A,,Partly Cloudy,200,2013-07-09 12:53:00
8:53 AM,82.0,72.0,71,30.13,10.0,SSW,17.3,21.9,N/A,,Clear,210,2013-07-09 13:53:00
9:53 AM,86.0,70.0,59,30.14,10.0,SSW,15.0,-,N/A,,Clear,210,2013-07-09 14:53:00
10:53 AM,90.0,68.0,48,30.14,10.0,SSW,13.8,19.6,N/A,,Clear,210,2013-07-09 15:53:00
11:53 AM,93.0,66.0,41,30.12,10.0,SW,13.8,-,N/A,,Clear,230,2013-07-09 16:53:00
12:53 PM,95.0,64.9,37,30.11,10.0,SSW,12.7,18.4,N/A,,Clear,200,2013-07-09 17:53:00
1:53 PM,97.0,63.0,32,30.09,10.0,South,13.8,20.7,N/A,,Partly Cloudy,180,2013-07-09 18:53:00
2:53 PM,98.1,63.0,31,30.06,10.0,South,8.1,18.4,N/A,,Partly Cloudy,190,2013-07-09 19:53:00
3:53 PM,97.0,62.1,31,30.04,10.0,SE,9.2,17.3,N/A,,Partly Cloudy,140,2013-07-09 20:53:00
4:53 PM,98.1,62.1,30,30.02,10.0,SSW,10.4,-,N/A,,Clear,200,2013-07-09 21:53:00
5:53 PM,99.0,62.1,30,30.00,10.0,SSW,11.5,-,N/A,,Clear,210,2013-07-09 22:53:00
6:53 PM,99.0,61.0,28,29.99,10.0,South,9.2,-,N/A,,Mostly Cloudy,190,2013-07-09 23:53:00
7:53 PM,96.1,61.0,31,29.98,10.0,South,9.2,-,N/A,,Clear,180,2013-07-10 00:53:00
8:53 PM,91.0,63.0,39,29.98,10.0,South,6.9,-,N/A,,Clear,170,2013-07-10 01:53:00
9:53 PM,88.0,64.0,45,29.99,9.0,SSE,5.8,-,N/A,,Clear,150,2013-07-10 02:53:00
10:53 PM,88.0,64.0,45,30.01,10.0,SSE,9.2,-,N/A,,Clear,150,2013-07-10 03:53:00
11:53 PM,86.0,66.9,53,30.03,10.0,South,9.2,-,N/A,,Clear,170,2013-07-10 04:53:00